Weather in Krasnoglinny

Russia / Sverdlovsk Oblast     59°23′27″N   61°14′27″E
temp.,
°C
wind,
m/s
gust,
m/s
humid.,
%
clouds,
%
prec.,
mm/h
press.,
hPa
HPBL,
m
20 june, sun
sun2023:00+14sw4119870 2.9 1005321
02:00+14wnw414955 0.1 1004468
05:00+11nw513830 0.1 1006943
08:00+13nw616500 0.0 10071452
11:00+16nw816322 0.0 10082035
14:00+17nnw815305 0.0 10102344
17:00+18nnw816325 0.0 10122489
20:00+13nne6144670 0.0 10161579
21 june, mon
mon2123:00+10n413545 0.0 1018634
02:00+7nnw413655 0.0 1020510
05:00+6nnw312702 0.0 1022390
08:00+11n475174 0.0 1023665
11:00+16n2335100 0.0 10221393
14:00+18nw2330100 0.0 10211651
17:00+18wnw2538100 0.0 10201656
20:00+12wnw2471100 0.0 1020176
22 june, tue
tue2223:00+11wsw138190 0.0 101990
02:00+10wsw128997 0.0 101963
05:00+10sw1288100 0.0 101870
08:00+15ese006623 0.0 1018431
11:00+19nnw125270 0.0 10181118
14:00+22nnw244665 0.0 10171665
17:00+21ene345133 0.0 1017846
20:00+17e3765100 0.0 1017247
23 june, wed
wed2323:00+12e2697100 1.3 1019181
02:00+12wnw0097100 1.2 101914
05:00+12sw1197100 1.2 101926
08:00+13sse1295100 0.0 1019118
11:00+15s237899 0.0 1020548
14:00+19ssw335123 0.0 10191356
17:00+20sw325041 0.0 10191439
20:00+18wsw236417 0.0 1019405
24 june, thu
thu2423:00+12sw22915 0.0 101912
02:00+10sw22962 0.0 101923
05:00+11sw11960 0.0 101829
08:00+17sw227093 0.0 1017534
11:00+23ssw11475 0.0 10161149
14:00+26sw11345 0.0 10141654
17:00+26sw113468 0.0 10131801
20:00+23sse36535 0.0 1012202